TimeEDT,TemperatureF,Dew PointF,Humidity,Sea Level PressureIn,VisibilityMPH,Wind Direction,Wind SpeedMPH,Gust SpeedMPH,PrecipitationIn,Events,Conditions,WindDirDegrees,DateUTC
12:53 AM,32.0,28.0,85,30.06,10.0,Calm,Calm,-,N/A,,Overcast,0,2013-03-30 04:53:00
1:53 AM,32.0,28.0,85,30.06,10.0,Calm,Calm,-,N/A,,Mostly Cloudy,0,2013-03-30 05:53:00
2:53 AM,32.0,28.0,85,30.07,10.0,Calm,Calm,-,N/A,,Overcast,0,2013-03-30 06:53:00
3:53 AM,28.0,25.0,88,30.07,10.0,South,3.5,-,N/A,,Partly Cloudy,170,2013-03-30 07:53:00
4:53 AM,25.0,21.9,88,30.07,10.0,Calm,Calm,-,N/A,,Scattered Clouds,0,2013-03-30 08:53:00
5:53 AM,25.0,21.9,88,30.08,10.0,Calm,Calm,-,N/A,,Clear,0,2013-03-30 09:53:00
6:53 AM,23.0,19.9,88,30.10,10.0,Calm,Calm,-,N/A,,Clear,0,2013-03-30 10:53:00
7:53 AM,30.0,26.1,85,30.11,10.0,Calm,Calm,-,N/A,,Clear,0,2013-03-30 11:53:00
8:53 AM,35.1,28.0,76,30.11,10.0,Calm,Calm,-,N/A,,Clear,0,2013-03-30 12:53:00
9:53 AM,43.0,27.0,53,30.10,10.0,Variable,3.5,-,N/A,,Clear,0,2013-03-30 13:53:00
10:53 AM,48.0,19.0,32,30.09,10.0,NNW,10.4,18.4,N/A,,Clear,340,2013-03-30 14:53:00
11:53 AM,48.9,18.0,29,30.07,10.0,WNW,15.0,19.6,N/A,,Clear,300,2013-03-30 15:53:00
12:53 PM,51.1,14.0,23,30.06,10.0,West,11.5,-,N/A,,Clear,280,2013-03-30 16:53:00
1:53 PM,53.1,12.9,20,30.05,10.0,NW,10.4,23.0,N/A,,Clear,320,2013-03-30 17:53:00
2:53 PM,53.1,12.9,20,30.04,10.0,NNW,12.7,21.9,N/A,,Clear,330,2013-03-30 18:53:00
3:53 PM,53.1,14.0,21,30.04,10.0,North,9.2,18.4,N/A,,Clear,360,2013-03-30 19:53:00
4:53 PM,53.1,12.9,20,30.04,10.0,NNW,10.4,17.3,N/A,,Clear,340,2013-03-30 20:53:00
5:53 PM,52.0,10.9,19,30.04,10.0,NNW,6.9,-,N/A,,Clear,330,2013-03-30 21:53:00
6:53 PM,50.0,12.0,22,30.05,10.0,NNW,4.6,-,N/A,,Clear,340,2013-03-30 22:53:00
7:53 PM,36.0,19.9,52,30.07,10.0,Calm,Calm,-,N/A,,Clear,0,2013-03-30 23:53:00
8:53 PM,30.0,21.9,72,30.09,10.0,Calm,Calm,-,N/A,,Clear,0,2013-03-31 00:53:00
9:53 PM,30.0,18.0,61,30.10,10.0,Calm,Calm,-,N/A,,Clear,0,2013-03-31 01:53:00
10:53 PM,27.0,18.0,69,30.11,10.0,Calm,Calm,-,N/A,,Clear,0,2013-03-31 02:53:00
11:53 PM,25.0,17.1,72,30.12,10.0,Calm,Calm,-,N/A,,Clear,0,2013-03-31 03:53:00